[[{"header":{"parameterUnit":"m.s-1","parameterCategory":1,"la1":30.2991,"la2":30.254,"lo1":-89.0895,"lo2":-89.0444,"dy":0.0017,"dx":0.0017,"nx":28,"ny":28,"refTime":"2023-10-17T03:00:00:Z","depth":0,"parameterNumber":2,"parameterNumberName":"U-component_of_WINDS"},"data":[0,0,0,0,0,0,0,0,0,0,0,0,0,0,0,0,0,0,0,0,0,0,0,0,0,0,0,0,0,0,0,0,0,0,0,0,0,0,0,0,0,0,0,0,0,0,0,0,0,0,0,0,0,0,0,0,0,0,1.1735,1.1735,0,1.1686,1.1686,1.1685,1.1606,1.1605,1.1603,1.1602,1.1553,1.1553,1.1553,0,0,0,0,0,0,0,0,0,0,0,0,0,1.1763,1.1762,1.1736,1.1735,1.1734,1.1687,1.1686,1.1685,1.1606,1.1605,1.1603,1.1601,1.1553,1.1553,1.1553,0,0,0,0,0,0,0,0,0,0,0,0,0,1.1736,1.1762,1.1736,1.1689,1.1685,1.1687,1.1686,1.1685,1.1607,1.1605,1.1602,1.16,1.1553,1.1553,1.1553,1.1597,0,0,1.1554,1.1554,0,0,0,0,0,0,0,0,1.1738,1.1735,1.1697,1.1692,1.1687,1.165,1.1677,1.1656,1.1607,1.1636,1.1602,1.1599,1.1587,1.1584,1.158,1.1595,1.1593,1.1554,1.1554,1.1554,1.1554,0,0,0,0,0,0,0,1.174,1.1737,1.1716,1.1696,1.169,1.1671,1.1665,1.1673,1.1625,1.1634,1.1628,1.1623,1.1584,1.158,1.1578,1.1592,1.1554,1.1554,1.1554,1.1554,1.164,1.1642,0,0,0,0,0,0,1.1748,1.1739,1.1718,1.1715,1.1708,1.1673,1.1666,1.1664,1.1624,1.1616,1.1625,1.1619,1.1581,1.1578,1.1576,1.1624,1.1554,1.1554,1.1554,1.1638,1.164,1.1643,0,0,0,0,0,0,1.1749,1.1747,1.172,1.1725,1.172,1.1674,1.1674,1.1664,1.166,1.1618,1.1609,1.1629,1.1579,1.1576,1.1592,1.1621,1.1554,1.1554,1.1635,1.1638,1.1641,1.172,0,0,0,0,0,0,1.175,1.1748,1.1763,1.1726,1.172,1.1736,1.1675,1.1665,1.166,1.1653,1.162,1.1612,1.1577,1.1593,1.1592,1.162,1.1554,1.1632,1.1636,1.164,1.1715,1.1726,1.1735,0,0,0,0,0,1.1751,1.1788,1.1765,1.1763,1.1739,1.1738,1.1735,1.1694,1.1663,1.1678,1.1651,1.1613,1.1619,1.1595,1.1594,1.1622,1.163,1.1635,1.164,1.171,1.1723,1.1735,0,0,0,0,0,0,1.1831,1.1782,1.1756,1.1782,1.1764,1.1725,1.1743,1.1709,1.1701,1.1694,1.1644,1.1637,1.166,1.1643,1.1617,1.1662,1.1618,1.1623,1.1672,1.1684,1.1694,1.1697,1.1554,0,0,0,0,0,1.1851,1.1854,1.1812,1.1839,1.1831,1.1789,1.1787,1.1757,1.1737,1.173,1.1704,1.1687,1.1684,1.1684,1.1679,1.1713,1.1704,1.1731,1.1742,1.175,1.1755,1.177,1.1781,1.1659,1.1659,1.1659,0,0,1.1893,1.1867,1.1872,1.1854,1.1837,1.1841,1.1783,1.179,1.1793,1.1731,1.1744,1.1725,1.1702,1.1727,1.1736,1.1713,1.1787,1.1757,1.1764,1.1763,1.1776,1.1788,1.1798,1.1663,1.1662,1.1661,0,0,1.1972,1.1953,1.1972,1.1957,1.1932,1.1904,1.1909,1.1874,1.1858,1.1871,1.1824,1.1827,1.1824,1.181,1.1802,1.1876,1.184,1.1876,1.1929,1.1944,1.1954,1.1962,1.1987,1.1996,1.1881,1.1882,1.1882,0,1.2027,1.2031,1.1987,1.1996,1.199,1.1934,1.1953,1.1941,1.1916,1.1913,1.1887,1.1882,1.1863,1.1883,1.1901,1.1898,1.1901,1.1879,1.1956,1.1964,1.1971,1.1994,1.2003,1.1886,1.1885,1.1885,1.1885,0,1.21,1.2103,1.2122,1.2099,1.2094,1.2109,1.2068,1.2069,1.204,1.2014,1.2027,1.2003,1.1992,1.1995,1.1967,1.2011,1.1997,1.1965,1.192,1.1988,1.2008,1.2017,1.1892,1.1891,1.1889,1.1888,0,0,1.2225,1.2177,1.2185,1.2173,1.2142,1.2144,1.2157,1.2145,1.2147,1.2132,1.2141,1.214,1.211,1.2101,1.2071,1.2085,1.2144,1.2051,1.205,1.2067,1.2189,1.2211,1.2222,1.2121,1.2122,1.2123,1.219,0,1.2295,1.2312,1.2273,1.23,1.2302,1.225,1.2261,1.2243,1.222,1.2219,1.2194,1.2194,1.2155,1.2149,1.2161,1.2134,1.2167,1.2129,1.2127,1.2127,1.2132,1.2233,1.2257,1.2321,1.2198,1.2199,1.22,0,1.2379,1.2368,1.2395,1.2361,1.2361,1.2371,1.2357,1.2357,1.2337,1.2319,1.231,1.2275,1.2285,1.2243,1.2255,1.2231,1.2228,1.2215,1.2216,1.2213,1.2166,1.2231,1.2341,1.235,1.2213,1.2212,1.2211,0,1.2465,1.2457,1.2471,1.2464,1.2426,1.2434,1.2419,1.2396,1.2392,1.238,1.2377,1.2368,1.2362,1.2356,1.2319,1.2292,1.2336,1.2291,1.232,1.2321,1.233,1.2329,1.2439,1.2332,1.2332,1.2332,1.2332,0,1.2546,1.2564,1.2509,1.2518,1.2537,1.2493,1.2513,1.2493,1.2473,1.2477,1.2432,1.2437,1.239,1.2389,1.2361,1.2375,1.2374,1.2359,1.2351,1.2362,1.2363,1.2357,1.2351,1.2334,1.2334,1.2333,1.2333,0,1.2644,1.2608,1.2621,1.2584,1.2575,1.2591,1.2559,1.2566,1.2541,1.2547,1.2546,1.2506,1.2503,1.2467,1.2457,1.2437,1.2462,1.2447,1.2469,1.2463,1.2493,1.249,1.2601,1.2613,1.2501,1.2502,1.2503,0,1.2697,1.2709,1.2674,1.2673,1.266,1.266,1.2655,1.2613,1.261,1.2587,1.2597,1.2591,1.2583,1.2582,1.2552,1.2544,1.2526,1.2566,1.2525,1.2535,1.2525,1.2523,1.2524,1.2574,1.2576,1.2577,1.2578,0,1.2794,1.2776,1.277,1.2759,1.2755,1.2744,1.273,1.2732,1.2686,1.2685,1.2682,1.2676,1.2665,1.2659,1.2646,1.263,1.2596,1.2591,1.2597,1.2607,1.2619,1.2611,1.249,1.2588,1.2587,1.2586,1.2586,1.2585,1.2869,1.2878,1.2854,1.2849,1.2835,1.2823,1.2828,1.2803,1.2799,1.2786,1.2763,1.2763,1.2741,1.272,1.2707,1.2707,1.2686,1.2696,1.2698,1.27,1.2705,1.2621,1.2705,1.2704,1.2704,1.2704,1.2703,0,1.2962,1.2945,1.2941,1.2923,1.292,1.2889,1.2872,1.2871,1.2872,1.2855,1.2848,1.2844,1.2838,1.2809,1.28,1.2805,1.2789,1.2804,1.2802,1.2798,1.2725,1.272,1.2817,1.2817,1.2817,1.2817,1.2817,1.2817,1.301,1.3022,1.3001,1.3006,1.2988,1.2987,1.298,1.2969,1.2955,1.2953,1.2947,1.2928,1.2906,1.2895,1.2888,1.288,1.2878,1.2897,1.2883,1.2815,1.2804,1.2793,1.2788,1.2898,1.2898,1.2957,1.2957,1.2958]},{"header":{"parameterUnit":"m.s-1","parameterCategory":1,"la1":30.2991,"la2":30.254,"lo1":-89.0895,"lo2":-89.0444,"dy":0.0017,"dx":0.0017,"nx":28,"ny":28,"refTime":"2023-10-17T03:00:00:Z","depth":0,"parameterNumber":3,"parameterNumberName":"V-component_of_WINDS"},"data":[0,0,0,0,0,0,0,0,0,0,0,0,0,0,0,0,0,0,0,0,0,0,0,0,0,0,0,0,0,0,0,0,0,0,0,0,0,0,0,0,0,0,0,0,0,0,0,0,0,0,0,0,0,0,0,0,0,0,0.4621,0.462,0,0.4563,0.4563,0.4562,0.4519,0.4518,0.4518,0.4518,0.4456,0.4455,0.4454,0,0,0,0,0,0,0,0,0,0,0,0,0,0.4692,0.469,0.4621,0.462,0.462,0.4563,0.4562,0.4562,0.4519,0.4518,0.4518,0.4517,0.4457,0.4455,0.4454,0,0,0,0,0,0,0,0,0,0,0,0,0,0.465,0.469,0.4621,0.4592,0.4588,0.4563,0.4562,0.4561,0.4519,0.4518,0.4518,0.4517,0.4457,0.4455,0.4453,0.4453,0,0,0.4448,0.4447,0,0,0,0,0,0,0,0,0.4652,0.4647,0.4597,0.4594,0.459,0.4548,0.4565,0.4525,0.4519,0.4545,0.4518,0.4517,0.4487,0.4483,0.4473,0.445,0.4447,0.4447,0.4446,0.4445,0.4445,0,0,0,0,0,0,0,0.4655,0.465,0.4598,0.4596,0.4592,0.458,0.4574,0.4557,0.452,0.4543,0.454,0.4533,0.4485,0.4475,0.4471,0.4446,0.4447,0.4446,0.4445,0.4444,0.4418,0.4418,0,0,0,0,0,0,0.4663,0.4652,0.46,0.4596,0.462,0.4579,0.4572,0.4562,0.452,0.4513,0.4534,0.4532,0.4478,0.4473,0.4469,0.4464,0.4445,0.4444,0.4442,0.4417,0.4418,0.4418,0,0,0,0,0,0,0.4665,0.4659,0.4602,0.4623,0.4615,0.4579,0.4568,0.4561,0.4551,0.4513,0.4506,0.4531,0.4478,0.4472,0.4457,0.4461,0.4443,0.4441,0.4417,0.4417,0.4418,0.4456,0,0,0,0,0,0,0.4667,0.466,0.466,0.4624,0.4614,0.4593,0.4568,0.456,0.4548,0.4544,0.4508,0.4502,0.4477,0.446,0.4455,0.4458,0.4439,0.4416,0.4417,0.4418,0.4454,0.4458,0.4461,0,0,0,0,0,0.467,0.4673,0.466,0.4654,0.4614,0.4593,0.4587,0.4559,0.4548,0.4548,0.4523,0.4503,0.4462,0.4459,0.4453,0.4456,0.4416,0.4417,0.4418,0.4452,0.4457,0.4461,0,0,0,0,0,0,0.4711,0.4668,0.4653,0.4645,0.4623,0.4586,0.4584,0.4565,0.4545,0.4543,0.4508,0.45,0.4489,0.4471,0.4468,0.4452,0.4436,0.4436,0.4464,0.4468,0.4472,0.4476,0.4438,0,0,0,0,0,0.4719,0.4706,0.4669,0.4665,0.4655,0.4621,0.4611,0.4591,0.4567,0.4557,0.4531,0.4508,0.4489,0.4478,0.4459,0.4451,0.4442,0.445,0.4453,0.4456,0.4457,0.4449,0.4452,0.4422,0.4422,0.4422,0,0,0.4735,0.471,0.4704,0.4673,0.4653,0.4639,0.4614,0.4601,0.459,0.4555,0.4539,0.452,0.449,0.4479,0.4472,0.4463,0.4463,0.4458,0.446,0.4459,0.4451,0.4454,0.4456,0.4422,0.4422,0.4422,0,0,0.4759,0.4739,0.4733,0.4714,0.4685,0.4662,0.4661,0.4626,0.4611,0.4595,0.4568,0.4554,0.4523,0.4503,0.4489,0.4502,0.4482,0.4497,0.4515,0.4509,0.4511,0.4513,0.4517,0.4519,0.4497,0.4498,0.4498,0,0.4783,0.4762,0.4732,0.472,0.4707,0.4674,0.4667,0.4649,0.4615,0.4606,0.4596,0.4556,0.4534,0.4517,0.452,0.451,0.4506,0.4501,0.4513,0.4515,0.4516,0.4519,0.4521,0.45,0.4499,0.4499,0.4499,0,0.4793,0.4778,0.4777,0.4745,0.4731,0.4722,0.4689,0.4678,0.4659,0.4637,0.462,0.4593,0.4567,0.4561,0.4542,0.454,0.4535,0.452,0.4503,0.4522,0.4524,0.4525,0.4502,0.4502,0.4501,0.4501,0,0,0.4841,0.4792,0.4792,0.4776,0.4741,0.4729,0.4717,0.4692,0.4683,0.466,0.4648,0.4622,0.4607,0.4591,0.4569,0.4564,0.4574,0.4548,0.4547,0.4554,0.4569,0.4581,0.4583,0.4561,0.4561,0.4561,0.4571,0,0.4858,0.4837,0.4809,0.4796,0.4782,0.475,0.4739,0.4715,0.4694,0.4678,0.4654,0.4636,0.4618,0.4608,0.4601,0.4575,0.4577,0.4574,0.4549,0.4548,0.4557,0.4584,0.4597,0.4608,0.4572,0.4572,0.4572,0,0.4876,0.4855,0.4841,0.4805,0.4798,0.479,0.4763,0.4749,0.472,0.4705,0.4686,0.4663,0.4647,0.4632,0.4609,0.4608,0.4595,0.4581,0.458,0.4577,0.4561,0.4581,0.461,0.4612,0.4573,0.4573,0.4573,0,0.4912,0.488,0.4867,0.4855,0.4813,0.4807,0.4789,0.4761,0.4747,0.4724,0.4714,0.4689,0.4675,0.4656,0.4625,0.4618,0.4605,0.4588,0.4591,0.4592,0.459,0.4591,0.4618,0.4583,0.4583,0.4583,0.4583,0,0.4934,0.4927,0.4882,0.4874,0.4864,0.4831,0.4822,0.4801,0.4775,0.4762,0.4732,0.4719,0.468,0.4663,0.4639,0.4623,0.4617,0.4603,0.4597,0.4605,0.4607,0.4597,0.4595,0.4583,0.4583,0.4583,0.4583,0,0.4973,0.4943,0.4927,0.4888,0.4878,0.4872,0.4839,0.4829,0.4805,0.4788,0.4782,0.4745,0.4723,0.469,0.4658,0.4642,0.4629,0.4619,0.4639,0.4635,0.464,0.4639,0.4661,0.4662,0.4627,0.4627,0.4628,0,0.4989,0.4982,0.4943,0.4932,0.4915,0.4898,0.4883,0.485,0.4836,0.4802,0.4796,0.4772,0.475,0.4715,0.4685,0.4659,0.4648,0.4657,0.4644,0.4653,0.4647,0.4648,0.4646,0.4661,0.4661,0.4662,0.4662,0,0.502,0.5005,0.4987,0.4962,0.4946,0.4924,0.4902,0.4894,0.4855,0.4841,0.4818,0.4801,0.4768,0.4743,0.4713,0.4693,0.4671,0.4666,0.4666,0.4675,0.4686,0.4679,0.4647,0.4666,0.4666,0.4665,0.4665,0.4665,0.5048,0.504,0.5011,0.499,0.4969,0.4948,0.4937,0.4911,0.4892,0.4863,0.4844,0.4821,0.4791,0.4748,0.4729,0.471,0.4701,0.47,0.47,0.47,0.4703,0.4689,0.4705,0.4705,0.4704,0.4704,0.4704,0,0.5077,0.5056,0.5037,0.5006,0.499,0.497,0.4944,0.4931,0.4912,0.4886,0.4865,0.4837,0.4813,0.478,0.4752,0.4743,0.4732,0.4737,0.4737,0.4733,0.4713,0.4716,0.4747,0.4747,0.4747,0.4747,0.4747,0.4747,0.509,0.5076,0.5057,0.5031,0.501,0.4988,0.4974,0.4954,0.4933,0.4904,0.4884,0.4863,0.4833,0.4803,0.4779,0.477,0.4761,0.4769,0.4756,0.4738,0.4734,0.4731,0.4734,0.4767,0.4767,0.4777,0.4777,0.4778]}]]